Year,Month,Day,Hour,Minute,Value (Times are PST for windgust in km/hr)
2010,03,17,00,00,9.60
2010,03,17,00,01,6.40
2010,03,17,00,02,4.80
2010,03,17,00,03,6.40
2010,03,17,00,04,3.20
2010,03,17,00,05,6.40
2010,03,17,00,06,3.20
2010,03,17,00,07,0.00
2010,03,17,00,08,0.00
2010,03,17,00,09,1.60
2010,03,17,00,10,3.20
2010,03,17,00,11,3.20
2010,03,17,00,12,3.20
2010,03,17,00,13,4.80
2010,03,17,00,14,3.20
2010,03,17,00,15,4.80
2010,03,17,00,16,3.20
2010,03,17,00,17,1.60
2010,03,17,00,18,3.20
2010,03,17,00,19,1.60
2010,03,17,00,20,1.60
2010,03,17,00,21,1.60
2010,03,17,00,22,1.60
2010,03,17,00,23,0.00
2010,03,17,00,24,0.00
2010,03,17,00,25,3.20
2010,03,17,00,26,4.80
2010,03,17,00,27,6.40
2010,03,17,00,28,6.40
2010,03,17,00,29,4.80
2010,03,17,00,30,4.80
2010,03,17,00,31,4.80
2010,03,17,00,32,1.60
2010,03,17,00,33,1.60
2010,03,17,00,34,0.00
2010,03,17,00,35,3.20
2010,03,17,00,36,0.00
2010,03,17,00,37,3.20
2010,03,17,00,38,3.20
2010,03,17,00,39,3.20
2010,03,17,00,40,6.40
2010,03,17,00,41,3.20
2010,03,17,00,42,3.20
2010,03,17,00,43,6.40
2010,03,17,00,44,3.20
2010,03,17,00,45,9.60
2010,03,17,00,46,4.80
2010,03,17,00,47,6.40
2010,03,17,00,48,8.10
2010,03,17,00,49,8.10
2010,03,17,00,50,8.10
2010,03,17,00,51,8.10
2010,03,17,00,52,6.40
2010,03,17,00,53,6.40
2010,03,17,00,54,9.60
2010,03,17,00,55,4.80
2010,03,17,00,56,4.80
2010,03,17,00,57,8.10
2010,03,17,00,58,6.40
2010,03,17,00,59,4.80
2010,03,17,01,00,4.80
2010,03,17,01,01,11.30
2010,03,17,01,02,16.10
2010,03,17,01,03,11.30
2010,03,17,01,04,9.60
2010,03,17,01,05,8.10
2010,03,17,01,06,11.30
2010,03,17,01,07,16.10
2010,03,17,01,08,14.50
2010,03,17,01,09,8.10
2010,03,17,01,10,6.40
2010,03,17,01,11,6.40
2010,03,17,01,12,6.40
2010,03,17,01,13,11.30
2010,03,17,01,14,14.50
2010,03,17,01,15,14.50
2010,03,17,01,16,11.30
2010,03,17,01,17,14.50
2010,03,17,01,18,8.10
2010,03,17,01,19,11.30
2010,03,17,01,20,9.60
2010,03,17,01,21,8.10
2010,03,17,01,22,6.40
2010,03,17,01,23,4.80
2010,03,17,01,24,9.60
2010,03,17,01,25,8.10
2010,03,17,01,26,6.40
2010,03,17,01,27,4.80
2010,03,17,01,28,4.80
2010,03,17,01,29,4.80
2010,03,17,01,30,3.20
2010,03,17,01,31,4.80
2010,03,17,01,32,6.40
2010,03,17,01,33,6.40
2010,03,17,01,34,0.00
2010,03,17,01,35,4.80
2010,03,17,01,36,3.20
2010,03,17,01,37,0.00
2010,03,17,01,38,3.20
2010,03,17,01,39,3.20
2010,03,17,01,40,3.20
2010,03,17,01,41,4.80
2010,03,17,01,42,3.20
2010,03,17,01,43,3.20
2010,03,17,01,44,3.20
2010,03,17,01,45,8.10
2010,03,17,01,46,8.10
2010,03,17,01,47,11.30
2010,03,17,01,48,8.10
2010,03,17,01,49,6.40
2010,03,17,01,50,6.40
2010,03,17,01,51,19.30
2010,03,17,01,52,9.60
2010,03,17,01,53,6.40
2010,03,17,01,54,8.10
2010,03,17,01,55,11.30
2010,03,17,01,56,16.10
2010,03,17,01,57,16.10
2010,03,17,01,58,16.10
2010,03,17,01,59,8.10
2010,03,17,02,00,9.60
2010,03,17,02,01,14.50
2010,03,17,02,02,16.10
2010,03,17,02,03,16.10
2010,03,17,02,04,11.30
2010,03,17,02,05,17.70
2010,03,17,02,06,14.50
2010,03,17,02,07,14.50
2010,03,17,02,08,12.90
2010,03,17,02,09,16.10
2010,03,17,02,10,16.10
2010,03,17,02,11,11.30
2010,03,17,02,12,12.90
2010,03,17,02,13,11.30
2010,03,17,02,14,9.60
2010,03,17,02,15,9.60
2010,03,17,02,16,6.40
2010,03,17,02,17,9.60
2010,03,17,02,18,12.90
2010,03,17,02,19,16.10
2010,03,17,02,20,8.10
2010,03,17,02,21,9.60
2010,03,17,02,22,9.60
2010,03,17,02,23,16.10
2010,03,17,02,24,11.30
2010,03,17,02,25,9.60
2010,03,17,02,26,8.10
2010,03,17,02,27,14.50
2010,03,17,02,28,16.10
2010,03,17,02,29,8.10
2010,03,17,02,30,4.80
2010,03,17,02,31,9.60
2010,03,17,02,32,9.60
2010,03,17,02,33,9.60
2010,03,17,02,34,6.40
2010,03,17,02,35,9.60
2010,03,17,02,36,6.40
2010,03,17,02,37,6.40
2010,03,17,02,38,6.40
2010,03,17,02,39,4.80
2010,03,17,02,40,4.80
2010,03,17,02,41,4.80
2010,03,17,02,42,3.20
2010,03,17,02,43,6.40
2010,03,17,02,44,6.40
2010,03,17,02,45,6.40
2010,03,17,02,46,6.40
2010,03,17,02,47,6.40
2010,03,17,02,48,1.60
2010,03,17,02,49,6.40
2010,03,17,02,50,8.10
2010,03,17,02,51,6.40
2010,03,17,02,52,9.60
2010,03,17,02,53,6.40
2010,03,17,02,54,9.60
2010,03,17,02,55,11.30
2010,03,17,02,56,9.60
2010,03,17,02,57,9.60
2010,03,17,02,58,8.10
2010,03,17,02,59,14.50
2010,03,17,03,00,9.60
2010,03,17,03,01,8.10
2010,03,17,03,02,8.10
2010,03,17,03,03,8.10
2010,03,17,03,04,8.10
2010,03,17,03,05,8.10
2010,03,17,03,06,8.10
2010,03,17,03,07,8.10
2010,03,17,03,08,9.60
2010,03,17,03,09,9.60
2010,03,17,03,10,9.60
2010,03,17,03,11,8.10
2010,03,17,03,12,9.60
2010,03,17,03,13,9.60
2010,03,17,03,14,4.80
2010,03,17,03,15,4.80
2010,03,17,03,16,4.80
2010,03,17,03,17,4.80
2010,03,17,03,18,6.40
2010,03,17,03,19,6.40
2010,03,17,03,20,4.80
2010,03,17,03,21,4.80
2010,03,17,03,22,3.20
2010,03,17,03,23,4.80
2010,03,17,03,24,3.20
2010,03,17,03,25,6.40
2010,03,17,03,26,6.40
2010,03,17,03,27,4.80
2010,03,17,03,28,8.10
2010,03,17,03,29,6.40
2010,03,17,03,30,6.40
2010,03,17,03,31,9.60
2010,03,17,03,32,8.10
2010,03,17,03,33,3.20
2010,03,17,03,34,6.40
2010,03,17,03,35,11.30
2010,03,17,03,36,8.10
2010,03,17,03,37,8.10
2010,03,17,03,38,9.60
2010,03,17,03,39,9.60
2010,03,17,03,40,8.10
2010,03,17,03,41,9.60
2010,03,17,03,42,16.10
2010,03,17,03,43,9.60
2010,03,17,03,44,4.80
2010,03,17,03,45,3.20
2010,03,17,03,46,3.20
2010,03,17,03,47,3.20
2010,03,17,03,48,9.60
2010,03,17,03,49,9.60
2010,03,17,03,50,9.60
2010,03,17,03,51,17.70
2010,03,17,03,52,8.10
2010,03,17,03,53,16.10
2010,03,17,03,54,8.10
2010,03,17,03,55,9.60
2010,03,17,03,56,14.50
2010,03,17,03,57,11.30
2010,03,17,03,58,14.50
2010,03,17,03,59,11.30
2010,03,17,04,00,11.30
2010,03,17,04,01,17.70
2010,03,17,04,02,11.30
2010,03,17,04,03,12.90
2010,03,17,04,04,9.60
2010,03,17,04,05,11.30
2010,03,17,04,06,16.10
2010,03,17,04,07,14.50
2010,03,17,04,08,11.30
2010,03,17,04,09,14.50
2010,03,17,04,10,9.60
2010,03,17,04,11,17.70
2010,03,17,04,12,11.30
2010,03,17,04,13,19.30
2010,03,17,04,14,8.10
2010,03,17,04,15,9.60
2010,03,17,04,16,9.60
2010,03,17,04,17,9.60
2010,03,17,04,18,11.30
2010,03,17,04,19,9.60
2010,03,17,04,20,11.30
2010,03,17,04,21,16.10
2010,03,17,04,22,11.30
2010,03,17,04,23,11.30
2010,03,17,04,24,17.70
2010,03,17,04,25,11.30
2010,03,17,04,26,16.10
2010,03,17,04,27,16.10
2010,03,17,04,28,17.70
2010,03,17,04,29,11.30
2010,03,17,04,30,16.10
2010,03,17,04,31,16.10
2010,03,17,04,32,12.90
2010,03,17,04,33,14.50
2010,03,17,04,34,14.50
2010,03,17,04,35,16.10
2010,03,17,04,36,20.90
2010,03,17,04,37,11.30
2010,03,17,04,38,16.10
2010,03,17,04,39,14.50
2010,03,17,04,40,14.50
2010,03,17,04,41,11.30
2010,03,17,04,42,9.60
2010,03,17,04,43,4.80
2010,03,17,04,44,9.60
2010,03,17,04,45,9.60
2010,03,17,04,46,11.30
2010,03,17,04,47,11.30
2010,03,17,04,48,8.10
2010,03,17,04,49,11.30
2010,03,17,04,50,8.10
2010,03,17,04,51,9.60
2010,03,17,04,52,8.10
2010,03,17,04,53,9.60
2010,03,17,04,54,12.90
2010,03,17,04,55,9.60
2010,03,17,04,56,11.30
2010,03,17,04,57,8.10
2010,03,17,04,58,11.30
2010,03,17,04,59,14.50
2010,03,17,05,00,17.70
2010,03,17,05,01,14.50
2010,03,17,05,02,9.60
2010,03,17,05,03,12.90
2010,03,17,05,04,8.10
2010,03,17,05,05,9.60
2010,03,17,05,06,9.60
2010,03,17,05,07,17.70
2010,03,17,05,08,8.10
2010,03,17,05,09,9.60
2010,03,17,05,10,16.10
2010,03,17,05,11,11.30
2010,03,17,05,12,9.60
2010,03,17,05,13,14.50
2010,03,17,05,14,9.60
2010,03,17,05,15,16.10
2010,03,17,05,16,14.50
2010,03,17,05,17,8.10
2010,03,17,05,18,4.80
2010,03,17,05,19,4.80
2010,03,17,05,20,11.30
2010,03,17,05,21,16.10
2010,03,17,05,22,14.50
2010,03,17,05,23,11.30
2010,03,17,05,24,25.70
2010,03,17,05,25,17.70
2010,03,17,05,26,9.60
2010,03,17,05,27,11.30
2010,03,17,05,28,9.60
2010,03,17,05,29,11.30
2010,03,17,05,30,6.40
2010,03,17,05,31,12.90
2010,03,17,05,32,17.70
2010,03,17,05,33,11.30
2010,03,17,05,34,11.30
2010,03,17,05,35,6.40
2010,03,17,05,36,6.40
2010,03,17,05,37,8.10
2010,03,17,05,38,9.60
2010,03,17,05,39,9.60
2010,03,17,05,40,4.80
2010,03,17,05,41,6.40
2010,03,17,05,42,4.80
2010,03,17,05,43,3.20
2010,03,17,05,44,4.80
2010,03,17,05,45,6.40
2010,03,17,05,46,6.40
2010,03,17,05,47,8.10
2010,03,17,05,48,8.10
2010,03,17,05,49,12.90
2010,03,17,05,50,11.30
2010,03,17,05,51,9.60
2010,03,17,05,52,8.10
2010,03,17,05,53,11.30
2010,03,17,05,54,9.60
2010,03,17,05,55,4.80
2010,03,17,05,56,9.60
2010,03,17,05,57,14.50
2010,03,17,05,58,6.40
2010,03,17,05,59,12.90
2010,03,17,06,00,14.50
2010,03,17,06,01,6.40
2010,03,17,06,02,12.90
2010,03,17,06,03,8.10
2010,03,17,06,04,16.10
2010,03,17,06,05,14.50
2010,03,17,06,06,8.10
2010,03,17,06,07,8.10
2010,03,17,06,08,6.40
2010,03,17,06,09,11.30
2010,03,17,06,10,8.10
2010,03,17,06,11,11.30
2010,03,17,06,12,11.30
2010,03,17,06,13,6.40
2010,03,17,06,14,3.20
2010,03,17,06,15,6.40
2010,03,17,06,16,9.60
2010,03,17,06,17,8.10
2010,03,17,06,18,6.40
2010,03,17,06,19,8.10
2010,03,17,06,20,3.20
2010,03,17,06,21,4.80
2010,03,17,06,22,6.40
2010,03,17,06,23,6.40
2010,03,17,06,24,4.80
2010,03,17,06,25,4.80
2010,03,17,06,26,4.80
2010,03,17,06,27,9.60
2010,03,17,06,28,8.10
2010,03,17,06,29,6.40
2010,03,17,06,30,11.30
2010,03,17,06,31,8.10
2010,03,17,06,32,6.40
2010,03,17,06,33,3.20
2010,03,17,06,34,0.00
2010,03,17,06,35,0.00
2010,03,17,06,36,8.10
2010,03,17,06,37,6.40
2010,03,17,06,38,9.60
2010,03,17,06,39,8.10
2010,03,17,06,40,14.50
2010,03,17,06,41,8.10
2010,03,17,06,42,6.40
2010,03,17,06,43,19.30
2010,03,17,06,44,16.10
2010,03,17,06,45,8.10
2010,03,17,06,46,14.50
2010,03,17,06,47,27.40
2010,03,17,06,48,16.10
2010,03,17,06,49,20.90
2010,03,17,06,50,19.30
2010,03,17,06,51,20.90
2010,03,17,06,52,9.60
2010,03,17,06,53,19.30
2010,03,17,06,54,27.40
2010,03,17,06,55,22.50
2010,03,17,06,56,27.40
2010,03,17,06,57,11.30
2010,03,17,06,58,16.10
2010,03,17,06,59,20.90
2010,03,17,07,00,16.10
2010,03,17,07,01,24.20
2010,03,17,07,02,12.90
2010,03,17,07,03,11.30
2010,03,17,07,04,19.30
2010,03,17,07,05,14.50
2010,03,17,07,06,22.50
2010,03,17,07,07,9.60
2010,03,17,07,08,9.60
2010,03,17,07,09,25.70
2010,03,17,07,10,20.90
2010,03,17,07,11,16.10
2010,03,17,07,12,32.20
2010,03,17,07,13,20.90
2010,03,17,07,14,20.90
2010,03,17,07,15,19.30
2010,03,17,07,16,24.20
2010,03,17,07,17,30.60
2010,03,17,07,18,24.20
2010,03,17,07,19,27.40
2010,03,17,07,20,27.40
2010,03,17,07,21,20.90
2010,03,17,07,22,16.10
2010,03,17,07,23,17.70
2010,03,17,07,24,8.10
2010,03,17,07,25,11.30
2010,03,17,07,26,9.60
2010,03,17,07,27,11.30
2010,03,17,07,28,9.60
2010,03,17,07,29,6.40
2010,03,17,07,30,1.60
2010,03,17,07,31,3.20
2010,03,17,07,32,4.80
2010,03,17,07,33,4.80
2010,03,17,07,34,3.20
2010,03,17,07,35,3.20
2010,03,17,07,36,19.30
2010,03,17,07,37,19.30
2010,03,17,07,38,4.80
2010,03,17,07,39,3.20
2010,03,17,07,40,1.60
2010,03,17,07,41,17.70
2010,03,17,07,42,8.10
2010,03,17,07,43,3.20
2010,03,17,07,44,6.40
2010,03,17,07,45,11.30
2010,03,17,07,46,11.30
2010,03,17,07,47,17.70
2010,03,17,07,48,11.30
2010,03,17,07,49,6.40
2010,03,17,07,50,3.20
2010,03,17,07,51,8.10
2010,03,17,07,52,8.10
2010,03,17,07,53,8.10
2010,03,17,07,54,6.40
2010,03,17,07,55,4.80
2010,03,17,07,56,4.80
2010,03,17,07,57,9.60
2010,03,17,07,58,4.80
2010,03,17,07,59,9.60
2010,03,17,08,00,8.10
2010,03,17,08,01,9.60
2010,03,17,08,02,4.80
2010,03,17,08,03,6.40
2010,03,17,08,04,6.40
2010,03,17,08,05,0.00
2010,03,17,08,06,9.60
2010,03,17,08,07,8.10
2010,03,17,08,08,4.80
2010,03,17,08,09,8.10
2010,03,17,08,10,12.90
2010,03,17,08,11,12.90
2010,03,17,08,12,4.80
2010,03,17,08,13,1.60
2010,03,17,08,14,0.00
2010,03,17,08,15,3.20
2010,03,17,08,16,1.60
2010,03,17,08,17,0.00
2010,03,17,08,18,3.20
2010,03,17,08,19,6.40
2010,03,17,08,20,6.40
2010,03,17,08,21,1.60
2010,03,17,08,22,4.80
2010,03,17,08,23,8.10
2010,03,17,08,24,4.80
2010,03,17,08,25,4.80
2010,03,17,08,26,8.10
2010,03,17,08,27,3.20
2010,03,17,08,28,3.20
2010,03,17,08,29,3.20
2010,03,17,08,30,6.40
2010,03,17,08,31,6.40
2010,03,17,08,32,9.60
2010,03,17,08,33,4.80
2010,03,17,08,34,3.20
2010,03,17,08,35,1.60
2010,03,17,08,36,4.80
2010,03,17,08,37,6.40
2010,03,17,08,38,3.20
2010,03,17,08,39,3.20
2010,03,17,08,40,1.60
2010,03,17,08,41,4.80
2010,03,17,08,42,1.60
2010,03,17,08,43,4.80
2010,03,17,08,44,4.80
2010,03,17,08,45,1.60
2010,03,17,08,46,3.20
2010,03,17,08,47,3.20
2010,03,17,08,48,3.20
2010,03,17,08,49,3.20
2010,03,17,08,50,3.20
2010,03,17,08,51,1.60
2010,03,17,08,52,3.20
2010,03,17,08,53,3.20
2010,03,17,08,54,3.20
2010,03,17,08,55,3.20
2010,03,17,08,56,6.40
2010,03,17,08,57,3.20
2010,03,17,08,58,3.20
2010,03,17,08,59,9.60
2010,03,17,09,00,6.40
2010,03,17,09,01,4.80
2010,03,17,09,02,9.60
2010,03,17,09,03,6.40
2010,03,17,09,04,9.60
2010,03,17,09,05,6.40
2010,03,17,09,06,6.40
2010,03,17,09,07,6.40
2010,03,17,09,08,11.30
2010,03,17,09,09,9.60
2010,03,17,09,10,8.10
2010,03,17,09,11,9.60
2010,03,17,09,12,6.40
2010,03,17,09,13,1.60
2010,03,17,09,14,0.00
2010,03,17,09,15,0.00
2010,03,17,09,16,0.00
2010,03,17,09,17,1.60
2010,03,17,09,18,1.60
2010,03,17,09,19,1.60
2010,03,17,09,20,1.60
2010,03,17,09,21,0.00
2010,03,17,09,22,3.20
2010,03,17,09,23,1.60
2010,03,17,09,24,6.40
2010,03,17,09,25,4.80
2010,03,17,09,26,8.10
2010,03,17,09,27,17.70
2010,03,17,09,28,16.10
2010,03,17,09,29,11.30
2010,03,17,09,30,8.10
2010,03,17,09,31,11.30
2010,03,17,09,32,11.30
2010,03,17,09,33,8.10
2010,03,17,09,34,19.30
2010,03,17,09,35,14.50
2010,03,17,09,36,9.60
2010,03,17,09,37,14.50
2010,03,17,09,38,9.60
2010,03,17,09,39,14.50
2010,03,17,09,40,16.10
2010,03,17,09,41,14.50
2010,03,17,09,42,16.10
2010,03,17,09,43,19.30
2010,03,17,09,44,11.30
2010,03,17,09,45,3.20
2010,03,17,09,46,1.60
2010,03,17,09,47,8.10
2010,03,17,09,48,4.80
2010,03,17,09,49,8.10
2010,03,17,09,50,9.60
2010,03,17,09,51,6.40
2010,03,17,09,52,6.40
2010,03,17,09,53,1.60
2010,03,17,09,54,8.10
2010,03,17,09,55,1.60
2010,03,17,09,56,4.80
2010,03,17,09,57,6.40
2010,03,17,09,58,3.20
2010,03,17,09,59,3.20
2010,03,17,10,00,17.70
2010,03,17,10,01,14.50
2010,03,17,10,02,9.60
2010,03,17,10,03,1.60
2010,03,17,10,04,8.10
2010,03,17,10,05,6.40
2010,03,17,10,06,4.80
2010,03,17,10,07,11.30
2010,03,17,10,08,3.20
2010,03,17,10,09,6.40
2010,03,17,10,10,6.40
2010,03,17,10,11,14.50
2010,03,17,10,12,14.50
2010,03,17,10,13,8.10
2010,03,17,10,14,8.10
2010,03,17,10,15,6.40
2010,03,17,10,16,11.30
2010,03,17,10,17,9.60
2010,03,17,10,18,9.60
2010,03,17,10,19,8.10
2010,03,17,10,20,6.40
2010,03,17,10,21,1.60
2010,03,17,10,22,9.60
2010,03,17,10,23,6.40
2010,03,17,10,24,6.40
2010,03,17,10,25,4.80
2010,03,17,10,26,3.20
2010,03,17,10,27,8.10
2010,03,17,10,28,8.10
2010,03,17,10,29,4.80
2010,03,17,10,30,6.40
2010,03,17,10,31,3.20
2010,03,17,10,32,4.80
2010,03,17,10,33,8.10
2010,03,17,10,34,9.60
2010,03,17,10,35,6.40
2010,03,17,10,36,4.80
2010,03,17,10,37,3.20
2010,03,17,10,38,4.80
2010,03,17,10,39,3.20
2010,03,17,10,40,4.80
2010,03,17,10,41,8.10
2010,03,17,10,42,4.80
2010,03,17,10,43,1.60
2010,03,17,10,44,3.20
2010,03,17,10,45,4.80
2010,03,17,10,46,1.60
2010,03,17,10,47,1.60
2010,03,17,10,48,1.60
2010,03,17,10,49,8.10
2010,03,17,10,50,8.10
2010,03,17,10,51,9.60
2010,03,17,10,52,16.10
2010,03,17,10,53,14.50
2010,03,17,10,54,6.40
2010,03,17,10,55,9.60
2010,03,17,10,56,9.60
2010,03,17,10,57,8.10
2010,03,17,10,58,9.60
2010,03,17,10,59,8.10
2010,03,17,11,00,4.80
2010,03,17,11,01,8.10
2010,03,17,11,02,8.10
2010,03,17,11,03,8.10
2010,03,17,11,04,11.30
2010,03,17,11,05,9.60
2010,03,17,11,06,4.80
2010,03,17,11,07,6.40
2010,03,17,11,08,11.30
2010,03,17,11,09,8.10
2010,03,17,11,10,8.10
2010,03,17,11,11,6.40
2010,03,17,11,12,3.20
2010,03,17,11,13,6.40
2010,03,17,11,14,4.80
2010,03,17,11,15,6.40
2010,03,17,11,16,3.20
2010,03,17,11,17,1.60
2010,03,17,11,18,9.60
2010,03,17,11,19,8.10
2010,03,17,11,20,4.80
2010,03,17,11,21,3.20
2010,03,17,11,22,4.80
2010,03,17,11,23,4.80
2010,03,17,11,24,6.40
2010,03,17,11,25,9.60
2010,03,17,11,26,9.60
2010,03,17,11,27,9.60
2010,03,17,11,28,16.10
2010,03,17,11,29,8.10
2010,03,17,11,30,12.90
2010,03,17,11,31,6.40
2010,03,17,11,32,11.30
2010,03,17,11,33,14.50
2010,03,17,11,34,9.60
2010,03,17,11,35,8.10
2010,03,17,11,36,9.60
2010,03,17,11,37,9.60
2010,03,17,11,38,9.60
2010,03,17,11,39,6.40
2010,03,17,11,40,6.40
2010,03,17,11,41,9.60
2010,03,17,11,42,6.40
2010,03,17,11,43,3.20
2010,03,17,11,44,4.80
2010,03,17,11,45,6.40
2010,03,17,11,46,4.80
2010,03,17,11,47,4.80
2010,03,17,11,48,9.60
2010,03,17,11,49,6.40
2010,03,17,11,50,9.60
2010,03,17,11,51,8.10
2010,03,17,11,52,8.10
2010,03,17,11,53,4.80
2010,03,17,11,54,4.80
2010,03,17,11,55,8.10
2010,03,17,11,56,9.60
2010,03,17,11,57,6.40
2010,03,17,11,58,9.60
2010,03,17,11,59,3.20
2010,03,17,12,00,3.20
2010,03,17,12,01,11.30
2010,03,17,12,02,9.60
2010,03,17,12,03,11.30
2010,03,17,12,04,9.60
2010,03,17,12,05,8.10
2010,03,17,12,06,8.10
2010,03,17,12,07,6.40
2010,03,17,12,08,16.10
2010,03,17,12,09,20.90
2010,03,17,12,10,16.10
2010,03,17,12,11,8.10
2010,03,17,12,12,11.30
2010,03,17,12,13,6.40
2010,03,17,12,14,4.80
2010,03,17,12,15,11.30
2010,03,17,12,16,16.10
2010,03,17,12,17,9.60
2010,03,17,12,18,9.60
2010,03,17,12,19,6.40
2010,03,17,12,20,14.50
2010,03,17,12,21,8.10
2010,03,17,12,22,6.40
2010,03,17,12,23,8.10
2010,03,17,12,24,6.40
2010,03,17,12,25,9.60
2010,03,17,12,26,12.90
2010,03,17,12,27,6.40
2010,03,17,12,28,6.40
2010,03,17,12,29,8.10
2010,03,17,12,30,11.30
2010,03,17,12,31,9.60
2010,03,17,12,32,14.50
2010,03,17,12,33,14.50
2010,03,17,12,34,16.10
2010,03,17,12,35,16.10
2010,03,17,12,36,8.10
2010,03,17,12,37,11.30
2010,03,17,12,38,16.10
2010,03,17,12,39,11.30
2010,03,17,12,40,9.60
2010,03,17,12,41,4.80
2010,03,17,12,42,4.80
2010,03,17,12,43,6.40
2010,03,17,12,44,1.60
2010,03,17,12,45,19.30
2010,03,17,12,46,22.50
2010,03,17,12,47,17.70
2010,03,17,12,48,9.60
2010,03,17,12,49,19.30
2010,03,17,12,50,12.90
2010,03,17,12,51,17.70
2010,03,17,12,52,17.70
2010,03,17,12,53,11.30
2010,03,17,12,54,14.50
2010,03,17,12,55,14.50
2010,03,17,12,56,14.50
2010,03,17,12,57,20.90
2010,03,17,12,58,29.00
2010,03,17,12,59,14.50
2010,03,17,13,00,11.30
2010,03,17,13,01,25.70
2010,03,17,13,02,9.60
2010,03,17,13,03,24.20
2010,03,17,13,04,9.60
2010,03,17,13,05,20.90
2010,03,17,13,06,17.70
2010,03,17,13,07,16.10
2010,03,17,13,08,16.10
2010,03,17,13,09,8.10
2010,03,17,13,10,20.90
2010,03,17,13,11,14.50
2010,03,17,13,12,11.30
2010,03,17,13,13,20.90
2010,03,17,13,14,16.10
2010,03,17,13,15,22.50
2010,03,17,13,16,16.10
2010,03,17,13,17,17.70
2010,03,17,13,18,16.10
2010,03,17,13,19,24.20
2010,03,17,13,20,19.30
2010,03,17,13,21,25.70
2010,03,17,13,22,25.70
2010,03,17,13,23,29.00
2010,03,17,13,24,25.70
2010,03,17,13,25,20.90
2010,03,17,13,26,20.90
2010,03,17,13,27,20.90
2010,03,17,13,28,24.20
2010,03,17,13,29,20.90
2010,03,17,13,30,17.70
2010,03,17,13,31,14.50
2010,03,17,13,32,19.30
2010,03,17,13,33,22.50
2010,03,17,13,34,24.20
2010,03,17,13,35,19.30
2010,03,17,13,36,17.70
2010,03,17,13,37,17.70
2010,03,17,13,38,3.20
2010,03,17,13,39,16.10
2010,03,17,13,40,14.50
2010,03,17,13,41,17.70
2010,03,17,13,42,22.50
2010,03,17,13,43,14.50
2010,03,17,13,44,16.10
2010,03,17,13,45,12.90
2010,03,17,13,46,9.60
2010,03,17,13,47,14.50
2010,03,17,13,48,19.30
2010,03,17,13,49,24.20
2010,03,17,13,50,24.20
2010,03,17,13,51,24.20
2010,03,17,13,52,20.90
2010,03,17,13,53,19.30
2010,03,17,13,54,19.30
2010,03,17,13,55,20.90
2010,03,17,13,56,20.90
2010,03,17,13,57,24.20
2010,03,17,13,58,20.90
2010,03,17,13,59,14.50
2010,03,17,14,00,20.90
2010,03,17,14,01,16.10
2010,03,17,14,02,8.10
2010,03,17,14,03,17.70
2010,03,17,14,04,20.90
2010,03,17,14,05,14.50
2010,03,17,14,06,8.10
2010,03,17,14,07,14.50
2010,03,17,14,08,19.30
2010,03,17,14,09,17.70
2010,03,17,14,10,19.30
2010,03,17,14,11,22.50
2010,03,17,14,12,19.30
2010,03,17,14,13,12.90
2010,03,17,14,14,14.50
2010,03,17,14,15,19.30
2010,03,17,14,16,22.50
2010,03,17,14,17,14.50
2010,03,17,14,18,19.30
2010,03,17,14,19,16.10
2010,03,17,14,20,24.20
2010,03,17,14,21,25.70
2010,03,17,14,22,19.30
2010,03,17,14,23,11.30
2010,03,17,14,24,14.50
2010,03,17,14,25,16.10
2010,03,17,14,26,14.50
2010,03,17,14,27,17.70
2010,03,17,14,28,16.10
2010,03,17,14,29,16.10
2010,03,17,14,30,14.50
2010,03,17,14,31,16.10
2010,03,17,14,32,17.70
2010,03,17,14,33,19.30
2010,03,17,14,34,20.90
2010,03,17,14,35,19.30
2010,03,17,14,36,20.90
2010,03,17,14,37,14.50
2010,03,17,14,38,19.30
2010,03,17,14,39,16.10
2010,03,17,14,40,20.90
2010,03,17,14,41,17.70
2010,03,17,14,42,11.30
2010,03,17,14,43,9.60
2010,03,17,14,44,11.30
2010,03,17,14,45,14.50
2010,03,17,14,46,20.90
2010,03,17,14,47,17.70
2010,03,17,14,48,17.70
2010,03,17,14,49,14.50
2010,03,17,14,50,16.10
2010,03,17,14,51,19.30
2010,03,17,14,52,17.70
2010,03,17,14,53,9.60
2010,03,17,14,54,22.50
2010,03,17,14,55,20.90
2010,03,17,14,56,14.50
2010,03,17,14,57,16.10
2010,03,17,14,58,16.10
2010,03,17,14,59,17.70
2010,03,17,15,00,17.70
2010,03,17,15,01,11.30
2010,03,17,15,02,19.30
2010,03,17,15,03,14.50
2010,03,17,15,04,25.70
2010,03,17,15,05,22.50
2010,03,17,15,06,22.50
2010,03,17,15,07,20.90
2010,03,17,15,08,20.90
2010,03,17,15,09,16.10
2010,03,17,15,10,20.90
2010,03,17,15,11,17.70
2010,03,17,15,12,19.30
2010,03,17,15,13,19.30
2010,03,17,15,14,20.90
2010,03,17,15,15,11.30
2010,03,17,15,16,11.30
2010,03,17,15,17,20.90
2010,03,17,15,18,17.70
2010,03,17,15,19,17.70
2010,03,17,15,20,16.10
2010,03,17,15,21,11.30
2010,03,17,15,22,14.50
2010,03,17,15,23,8.10
2010,03,17,15,24,16.10
2010,03,17,15,25,12.90
2010,03,17,15,26,8.10
2010,03,17,15,27,16.10
2010,03,17,15,28,14.50
2010,03,17,15,29,12.90
2010,03,17,15,30,14.50
2010,03,17,15,31,14.50
2010,03,17,15,32,19.30
2010,03,17,15,33,11.30
2010,03,17,15,34,20.90
2010,03,17,15,35,6.40
2010,03,17,15,36,20.90
2010,03,17,15,37,12.90
2010,03,17,15,38,6.40
2010,03,17,15,39,16.10
2010,03,17,15,40,16.10
2010,03,17,15,41,17.70
2010,03,17,15,42,14.50
2010,03,17,15,43,11.30
2010,03,17,15,44,9.60
2010,03,17,15,45,8.10
2010,03,17,15,46,6.40
2010,03,17,15,47,16.10
2010,03,17,15,48,16.10
2010,03,17,15,49,16.10
2010,03,17,15,50,14.50
2010,03,17,15,51,16.10
2010,03,17,15,52,6.40
2010,03,17,15,53,17.70
2010,03,17,15,54,14.50
2010,03,17,15,55,8.10
2010,03,17,15,56,6.40
2010,03,17,15,57,9.60
2010,03,17,15,58,11.30
2010,03,17,15,59,16.10
2010,03,17,16,00,16.10
2010,03,17,16,01,19.30
2010,03,17,16,02,22.50
2010,03,17,16,03,11.30
2010,03,17,16,04,19.30
2010,03,17,16,05,16.10
2010,03,17,16,06,12.90
2010,03,17,16,07,11.30
2010,03,17,16,08,20.90
2010,03,17,16,09,19.30
2010,03,17,16,10,19.30
2010,03,17,16,11,20.90
2010,03,17,16,12,12.90
2010,03,17,16,13,16.10
2010,03,17,16,14,12.90
2010,03,17,16,15,12.90
2010,03,17,16,16,11.30
2010,03,17,16,17,8.10
2010,03,17,16,18,11.30
2010,03,17,16,19,6.40
2010,03,17,16,20,9.60
2010,03,17,16,21,9.60
2010,03,17,16,22,9.60
2010,03,17,16,23,9.60
2010,03,17,16,24,9.60
2010,03,17,16,25,11.30
2010,03,17,16,26,8.10
2010,03,17,16,27,9.60
2010,03,17,16,28,14.50
2010,03,17,16,29,3.20
2010,03,17,16,30,8.10
2010,03,17,16,31,9.60
2010,03,17,16,32,9.60
2010,03,17,16,33,12.90
2010,03,17,16,34,4.80
2010,03,17,16,35,9.60
2010,03,17,16,36,16.10
2010,03,17,16,37,8.10
2010,03,17,16,38,9.60
2010,03,17,16,39,9.60
2010,03,17,16,40,8.10
2010,03,17,16,41,8.10
2010,03,17,16,42,11.30
2010,03,17,16,43,9.60
2010,03,17,16,44,8.10
2010,03,17,16,45,8.10
2010,03,17,16,46,6.40
2010,03,17,16,47,6.40
2010,03,17,16,48,9.60
2010,03,17,16,49,9.60
2010,03,17,16,50,6.40
2010,03,17,16,51,14.50
2010,03,17,16,52,9.60
2010,03,17,16,53,9.60
2010,03,17,16,54,12.90
2010,03,17,16,55,14.50
2010,03,17,16,56,11.30
2010,03,17,16,57,11.30
2010,03,17,16,58,6.40
2010,03,17,16,59,6.40
2010,03,17,17,00,4.80
2010,03,17,17,01,3.20
2010,03,17,17,02,3.20
2010,03,17,17,03,3.20
2010,03,17,17,04,6.40
2010,03,17,17,05,4.80
2010,03,17,17,06,6.40
2010,03,17,17,07,6.40
2010,03,17,17,08,3.20
2010,03,17,17,09,8.10
2010,03,17,17,10,8.10
2010,03,17,17,11,8.10
2010,03,17,17,12,6.40
2010,03,17,17,13,6.40
2010,03,17,17,14,9.60
2010,03,17,17,15,8.10
2010,03,17,17,16,8.10
2010,03,17,17,17,8.10
2010,03,17,17,18,9.60
2010,03,17,17,19,8.10
2010,03,17,17,20,9.60
2010,03,17,17,21,11.30
2010,03,17,17,22,11.30
2010,03,17,17,23,9.60
2010,03,17,17,24,9.60
2010,03,17,17,25,9.60
2010,03,17,17,26,8.10
2010,03,17,17,27,9.60
2010,03,17,17,28,17.70
2010,03,17,17,29,14.50
2010,03,17,17,30,11.30
2010,03,17,17,31,11.30
2010,03,17,17,32,8.10
2010,03,17,17,33,6.40
2010,03,17,17,34,16.10
2010,03,17,17,35,11.30
2010,03,17,17,36,6.40
2010,03,17,17,37,8.10
2010,03,17,17,38,6.40
2010,03,17,17,39,6.40
2010,03,17,17,40,6.40
2010,03,17,17,41,8.10
2010,03,17,17,42,8.10
2010,03,17,17,43,14.50
2010,03,17,17,44,9.60
2010,03,17,17,45,6.40
2010,03,17,17,46,8.10
2010,03,17,17,47,8.10